Volver al catálogo

STARLINK-31144

ActivoComunicacionesVLEO
NORAD 58682·PAYLOAD·🇺🇸 United States

Lanzado Dec 29, 2023 desde Cape Canaveral Space Force Station

Loading…

Próximos Pases (próximas 24 horas)

TLE

ActualizadoSource: CelesTrak SupGP

Época: Sep 14, 2026, 22:18 UTC

1 58682C 23211R   26257.92965278  .00019716  00000+0  71416-3 0  2570
2 58682  43.0032  96.1315 0001692 275.9242 358.4987 15.27566812    15

Sigue STARLINK-31144 en tiempo real con AllMySat

Download on the App Store